Regional Weather Roundup
Issued by NWS Kansas City/Pleasant Hill, MO

Home | Current Version | Previous Version | Graphics & Text | Print | Product List | Glossary Off
Versions: 1 2 3 4 5 6 7 8 9 10 11 12 13 14 15 16 17 18 19 20 21 22 23 24 25 26 27 28 29 30 31 32 33 34 35 36 37 38 39 40 41 42 43 44 45 46 47 48 49 50

000
ASUS43 KEAX 281111
RWREAX

WEATHER ROUNDUP FOR EASTERN KANSAS AND NORTHWEST MISSOURI
NATIONAL WEATHER SERVICE KANSAS CITY/PLEASANT HILL MO
600 AM CDT MON JUL 28 2014

KSZ040-057-103>105-MOZ028-029-037-043-281200-
...KANSAS CITY METROPOLITAN AREA...

CITY           SKY/WX    TMP DP  RH WIND       PRES   REMARKS
K.C. INTL      CLEAR     59  56  89 NW7       30.17R
K.C. DOWNTOWN  CLEAR     65  57  75 NW5       30.16R
LEES SUMMIT    CLEAR     61  57  87 W3        30.17R
OLATHE - IXD   CLEAR     60  57  89 N7        30.18S
OLATHE - OJC   CLEAR     63  57  81 N6        30.17R
LAWRENCE       CLEAR     60  56  86 NW8       30.19R

$$

MOZ001>008-011>017-020>025-030>033-038>040-044>046-053-054-281200-
...NORTHERN AND CENTRAL MISSOURI...

CITY           SKY/WX    TMP DP  RH WIND       PRES   REMARKS
ST. JOSEPH     CLEAR     59  56  89 N6        30.18S
MOSBY          SUNNY     59  55  88 CALM      30.16R
WHITEMAN AFB   CLEAR     61  49  64 NW6       30.13S
CLINTON        CLEAR     57  55  94 CALM      30.15R
SEDALIA        CLEAR     61  56  83 NW7       30.13S
WARSAW         NOT AVBL
MARSHALL       CLEAR     63  61  94 NW7       30.14S
CHILLICOTHE      N/A     63  57  81 VRB5      30.15R
MOBERLY        CLEAR     61  55  82 NW6       30.11R
KIRKSVILLE     CLEAR     60  57  89 NW7       30.13R

$$

MOZ041-047>049-056>058-063>065-088>090-097-281200-
...EASTERN AND SOUTHERN MISSOURI...

CITY           SKY/WX    TMP DP  RH WIND       PRES   REMARKS
ST. LOUIS INTL CLEAR     66  59  78 NW6       30.05R
SPIRIT OF STL  CLEAR     64  58  80 NW5       30.05R
COLUMBIA       CLEAR     61  57  87 W8        30.11R
JEFFERSON CITY CLEAR     63  58  83 NW6       30.10R
MEXICO         CLEAR    N/A N/A N/A NW6       30.09R
HANNIBAL       CLEAR     63  59  88 NW7       30.09R
ROLLA          CLEAR     61  56  83 NW8       30.09R
LEBANON        CLEAR     61  55  82 NW5       30.14S
OSAGE BEACH    CLEAR     64  55  72 NW5       30.12R
SPRINGFIELD    CLEAR     60  55  83 N7        30.15R
BRANSON        CLEAR     63  57  82 NW5       30.16R
NEVADA         CLEAR     59  57  94 N5        30.18R
JOPLIN         CLEAR     62  58  86 CALM      30.17R
WEST PLAINS    CLEAR     63  56  78 NW6       30.12R

$$

IAZ060-094-KSZ022-034>040-054-083-096-NEZ052-066-093-281200-
...KANSAS...SOUTHEAST NEBRASKA AND IOWA...

CITY           SKY/WX    TMP DP  RH WIND       PRES   REMARKS
TOPEKA         CLEAR     63  58  83 N7        30.20R
MANHATTAN      CLEAR     62  57  83 N3        30.22R
EMPORIA        PTCLDY    59  57  93 N5        30.20R
CHANUTE        CLEAR     60  57  89 N5        30.18R
WICHITA        PTCLDY    68  57  68 NE8       30.20R
OMAHA          CLEAR     58  54  86 N6        30.22S
LINCOLN        CLEAR     61  54  77 NW7       30.25R
LAMONI         CLOUDY    60  57  89 N12       30.16R
DES MOINES     PTCLDY    61  58  90 N6        30.16R

$$




USA.gov is the U.S. government's official web portal to all federal, state and local government web resources and services.